Regional Weather Roundup
Issued by NWS Newport/Morehead, NC

Current Version | Previous Version | Text Only | Print | Product List | Glossary Off
Versions: 1 2 3 4 5 6 7 8 9 10 11 12 13 14 15 16 17 18 19 20 21 22 23 24 25 26 27 28 29 30 31 32 33 34 35 36 37 38 39 40 41 42 43 44 45 46 47 48 49 50

000
ASUS42 KMHX 232125
RWRMHX
WEATHER ROUNDUP FOR EASTERN NORTH CAROLINA
NATIONAL WEATHER SERVICE NEWPORT/MOREHEAD CITY NC
500 PM EDT SUN APR 23 2017

NOTE: "FAIR" INDICATES FEW OR NO CLOUDS BELOW 12,000 FEET
WITH NO SIGNIFICANT WEATHER AND/OR OBSTRUCTIONS TO VISIBILITY

NCZ015>017-031-032-045>047-102-103-232200-
NORTH COAST

CITY           SKY/WX    TMP DP  RH WIND       PRES   REMARKS
EDENTON        CLOUDY    58  53  83 NE9       30.02S
ELIZABETH CITY CLOUDY    57  53  86 NE18G26   30.02S
KITTY HAWK     CLOUDY    56  53  89 NE7G22    29.99S
MANTEO         CLOUDY    56  53  86 NE20G28   30.00S

$$

NCZ045>047-081-094-103-104-232200-
CENTRAL COAST

CITY           SKY/WX    TMP DP  RH WIND       PRES   REMARKS
FRISCO         CLOUDY    64  57  78 NE12G26   29.96S HAZE

$$

NCZ095-097-098-100-101-232200-
SOUTHERN COAST

CITY           SKY/WX    TMP DP  RH WIND       PRES   REMARKS
BEAUFORT       CLOUDY    64  61  90 NE15G23   29.95S
CEDAR ISLAND   NOT AVBL
JACKSONVILLE   RAIN      61  60  97 NE10      29.94S FOG
PINEY ISLAND   CLOUDY   N/A N/A N/A NE16G24   29.96S
WILMINGTON     CLOUDY    65  62  90 NE14      29.91F


$$

NCZ011>013-027>030-043-044-078>080-089-090>093-098-232200-
COASTAL PLAIN

CITY           SKY/WX    TMP DP  RH WIND       PRES   REMARKS
AHOSKIE        LGT RAIN  53  52  95 NE7       30.03F
CLINTON        CLOUDY    58  58  97 E6        29.95S
ELIZABETHTOWN  CLOUDY    61  58  90 E6        29.92S
GOLDSBORO      TSTM      57  57 100 NE8       29.96R
GREENVILLE     CLOUDY    59  54  82 E9        30.01R
HAVELOCK       CLOUDY    63  57  81 NE14G20   29.97R
KENANSVILLE    LGT RAIN  59  55  88 E3        29.95S
KINSTON        CLOUDY    59  55  88 NE12G20   29.98S
NEW BERN       CLOUDY    59  58  96 NE10      29.98R
RICHLANDS      CLOUDY    59  57  93 NE10G20   29.96S
ROCKY MOUNT    LGT RAIN  56  53  90 NE13G20   29.99F
WASHINGTON     CLOUDY    56  54  92 NE10G17   29.99S
WHITEVILLE     CLOUDY    64  60  88 NE10G16   29.88F

$$

AMZ130-135-150-152-154-156-158-170-250-252-270-ANZ085-086-088-633-658-670-232200-
MARINE OBSERVATIONS

STATION/POSITION TIME  TEMP    WIND        PRES    WAVE   SWELL
                       AIR SEA DIR/SP/G            HT/PER HT/PER
                 (UTC) (F)     (DEG/KT/KT) (MB)    (FT/S) (FT/S)
CHESAPEAKE LIGHT NOT AVBL
64 E VA BEACH    2050   55 53   40/ 17/ 21 1016.5    6/11   3/11
DUCK             2100   56 63   40/ 23/ 27 1015.5
2 E DUCK         2100      60                N/A     5/ 6   2/11
OREGON INLET     2100   56 59   30/ 17/ 23 1015.2
13E OREGON INLT  2048      56                N/A     6/11   3/11
HATTERAS CG      2100   61 68   30/ 18/ 22 1014.2
DIAMOND BUOY     2050   67 76   20/ 21/ 25 1013.1    7/ 7   2/12
CAPE LOOKOUT     2100   63      40/ 22/ 25 1013.6
BEAUFORT LAB     2100   63 65   50/ 12/ 20 1013.2
30 SE NEW RVR IN 2108   65      50/ 21/ 27 1012.2
30 SE NEW RVR IN 2113      71                N/A     6/ 5   2/12
27 SE WRIGHTSVLE 2108   68 71   90/ 19/ 27 1011.1
5 SE WRIGHTSVLE  2108   67 69   70/ 14/ 23 1012.4
225 S CAPE HAT   2050   71 75  140/ 16/ 17 1013.6    4/12   2/12
41 SE CHARLESTON 2110   75 75  170/ 10/ 12 1009.4

$$




USA.gov is the U.S. government's official web portal to all federal, state and local government web resources and services.